When you browse on this site, cookies collect data to enhance your experience and personalize the content and advertising you see.
Visit our Privacy Policy to learn more. By continuing to use the site, you agree to this use of cookies and data.
  • In Sweden
  • List of Countries
  • For 7 days
  • Water Temperature
  • Satellite Maps
  • Weather Map
  • Weather Widgets
  • user-avatar
    Login

    Hourly Weather Aberdeen

    Today, 26 June, Wednesday

    Time Temperature Precipitation Wind Pressure Humidity
    00:00 +10°C° 0 mm 1 mps 764 mmHg 91%
    01:00 +9°C° 0 mm 1 mps 764 mmHg 92%
    02:00 +9°C° 0 mm 1 mps 764 mmHg 92%
    03:00 +8°C° 0 mm 1 mps 764 mmHg 92%
    04:00 +9°C° 0 mm 1 mps 764 mmHg 90%
    05:00 +10°C° 0 mm 1 mps 764 mmHg 88%
    06:00 +10°C° 0 mm 0 mps 765 mmHg 86%
    07:00 +12°C° 0 mm 1 mps 765 mmHg 83%
    08:00 +13°C° 0 mm 1 mps 765 mmHg 80%
    09:00 +14°C° 0 mm 1 mps 765 mmHg 76%
    10:00 +15°C° 0 mm 2 mps 766 mmHg 74%
    11:00 +16°C° 0 mm 2 mps 766 mmHg 71%
    12:00 +17°C° 0 mm 3 mps 766 mmHg 70%
    13:00 +18°C° 0 mm 3 mps 766 mmHg 70%
    14:00 +18°C° 0 mm 3 mps 765 mmHg 71%
    15:00 +19°C° 0 mm 3 mps 765 mmHg 71%
    16:00 +19°C° 0 mm 3 mps 765 mmHg 73%
    17:00 +19°C° 0 mm 2 mps 765 mmHg 76%
    18:00 +19°C° 0 mm 2 mps 765 mmHg 78%
    19:00 +17°C° 0 mm 2 mps 765 mmHg 82%
    20:00 +15°C° 0 mm 1 mps 765 mmHg 86%
    21:00 +14°C° 0 mm 1 mps 766 mmHg 90%
    22:00 +13°C° 0 mm 1 mps 766 mmHg 90%
    23:00 +12°C° 0 mm 1 mps 766 mmHg 90%

    Tomorrow, 27 June, Thursday

    Time Temperature Precipitation Wind Pressure Humidity
    00:00 +11°C° 0 mm 0 mps 766 mmHg 90%
    01:00 +12°C° 0 mm 1 mps 766 mmHg 90%
    02:00 +12°C° 0 mm 1 mps 766 mmHg 90%
    03:00 +12°C° 0 mm 1 mps 766 mmHg 90%
    04:00 +13°C° 0 mm 1 mps 766 mmHg 90%
    05:00 +14°C° 0 mm 1 mps 766 mmHg 89%
    06:00 +15°C° 0 mm 1 mps 766 mmHg 88%
    07:00 +15°C° 0 mm 1 mps 766 mmHg 86%
    08:00 +16°C° 0 mm 2 mps 766 mmHg 84%
    09:00 +17°C° 0 mm 2 mps 767 mmHg 82%
    10:00 +18°C° 0 mm 2 mps 767 mmHg 82%
    11:00 +18°C° 0 mm 3 mps 766 mmHg 82%
    12:00 +18°C° 0 mm 3 mps 766 mmHg 82%
    13:00 +18°C° 0 mm 3 mps 766 mmHg 82%
    14:00 +18°C° 0 mm 3 mps 766 mmHg 82%
    15:00 +18°C° 0 mm 3 mps 766 mmHg 81%
    16:00 +18°C° 0 mm 3 mps 765 mmHg 83%
    17:00 +17°C° 0 mm 3 mps 765 mmHg 85%
    18:00 +16°C° 0 mm 3 mps 765 mmHg 87%
    19:00 +15°C° 0 mm 2 mps 765 mmHg 90%
    20:00 +14°C° 0 mm 2 mps 765 mmHg 93%
    21:00 +12°C° 0 mm 2 mps 766 mmHg 96%
    22:00 +12°C° 0 mm 1 mps 765 mmHg 96%
    23:00 +11°C° 0 mm 1 mps 765 mmHg 96%

    Day after tomorrow, 28 June, Friday

    Time Temperature Precipitation Wind Pressure Humidity
    00:00 +10°C° 0 mm 0 mps 765 mmHg 97%
    01:00 +10°C° 0 mm 0 mps 765 mmHg 96%
    02:00 +10°C° 0 mm 0 mps 764 mmHg 96%
    03:00 +9°C° 0 mm 0 mps 764 mmHg 96%
    04:00 +12°C° 0 mm 1 mps 764 mmHg 94%
    05:00 +13°C° 0 mm 1 mps 764 mmHg 92%
    06:00 +14°C° 0 mm 1 mps 763 mmHg 90%
    07:00 +15°C° 0 mm 1 mps 763 mmHg 87%
    08:00 +16°C° 0 mm 2 mps 763 mmHg 84%
    09:00 +17°C° 0 mm 2 mps 763 mmHg 80%
    10:00 +18°C° 0 mm 2 mps 762 mmHg 79%
    11:00 +18°C° 0 mm 3 mps 762 mmHg 78%
    12:00 +19°C° 0 mm 3 mps 761 mmHg 76%
    13:00 +19°C° 0 mm 3 mps 761 mmHg 76%
    14:00 +19°C° 0 mm 4 mps 761 mmHg 76%
    15:00 +19°C° 0 mm 4 mps 760 mmHg 76%
    16:00 +18°C° 0 mm 3 mps 760 mmHg 78%
    17:00 +17°C° 0 mm 3 mps 759 mmHg 80%
    18:00 +17°C° 0 mm 3 mps 759 mmHg 82%
    19:00 +14°C° 0 mm 3 mps 758 mmHg 86%
    20:00 +14°C° 0 mm 2 mps 758 mmHg 90%
    21:00 +12°C° 0 mm 2 mps 758 mmHg 94%
    22:00 +12°C° 0 mm 2 mps 758 mmHg 94%
    23:00 +10°C° 0 mm 2 mps 757 mmHg 94%

    29 June, Saturday

    Time Temperature Precipitation Wind Pressure Humidity
    00:00 +10°C° 0 mm 2 mps 757 mmHg 94%
    01:00 +11°C° 0 mm 1 mps 756 mmHg 94%
    02:00 +10°C° 0 mm 1 mps 756 mmHg 94%
    03:00 +10°C° 0 mm 1 mps 755 mmHg 95%
    04:00 +11°C° 0 mm 1 mps 755 mmHg 93%
    05:00 +11°C° 0 mm 0 mps 754 mmHg 91%
    06:00 +12°C° 0 mm 0 mps 753 mmHg 90%
    07:00 +15°C° 0 mm 1 mps 753 mmHg 85%
    08:00 +18°C° 0 mm 1 mps 753 mmHg 81%
    09:00 +19°C° 0 mm 2 mps 753 mmHg 76%
    10:00 +20°C° 0 mm 2 mps 752 mmHg 77%
    11:00 +20°C° 0 mm 3 mps 752 mmHg 77%
    12:00 +21°C° 0 mm 3 mps 751 mmHg 77%
    13:00 +21°C° 0 mm 3 mps 751 mmHg 79%
    14:00 +21°C° 0 mm 3 mps 750 mmHg 80%
    15:00 +21°C° 0 mm 2 mps 750 mmHg 82%
    16:00 +20°C° 0.6 mm 2 mps 749 mmHg 86%
    17:00 +19°C° 0.6 mm 2 mps 749 mmHg 91%
    18:00 +18°C° 0.6 mm 2 mps 748 mmHg 96%
    19:00 +17°C° 0.3 mm 3 mps 748 mmHg 95%
    20:00 +16°C° 0.3 mm 3 mps 748 mmHg 94%
    21:00 +14°C° 0.3 mm 3 mps 748 mmHg 93%
    22:00 +14°C° 0 mm 3 mps 747 mmHg 94%
    23:00 +14°C° 0 mm 3 mps 747 mmHg 95%

    30 June, Sunday

    Time Temperature Precipitation Wind Pressure Humidity
    00:00 +13°C° 0 mm 3 mps 747 mmHg 96%
    01:00 +13°C° 0 mm 3 mps 747 mmHg 96%
    02:00 +13°C° 0 mm 3 mps 747 mmHg 96%
    03:00 +12°C° 0 mm 3 mps 747 mmHg 96%
    04:00 +13°C° 0 mm 3 mps 747 mmHg 95%
    05:00 +13°C° 0 mm 4 mps 747 mmHg 94%
    06:00 +14°C° 0 mm 4 mps 747 mmHg 93%
    07:00 +14°C° 0 mm 5 mps 747 mmHg 90%
    08:00 +15°C° 0 mm 6 mps 748 mmHg 86%
    09:00 +16°C° 0 mm 7 mps 748 mmHg 82%
    10:00 +15°C° 0.1 mm 7 mps 748 mmHg 84%
    11:00 +15°C° 0.1 mm 7 mps 748 mmHg 86%
    12:00 +14°C° 0.1 mm 6 mps 748 mmHg 88%
    13:00 +15°C° 0.1 mm 7 mps 749 mmHg 82%
    14:00 +16°C° 0.1 mm 8 mps 749 mmHg 76%
    15:00 +17°C° 0.1 mm 8 mps 749 mmHg 70%
    16:00 +16°C° 0 mm 8 mps 749 mmHg 72%
    17:00 +15°C° 0 mm 7 mps 749 mmHg 74%
    18:00 +14°C° 0 mm 6 mps 750 mmHg 76%
    19:00 +13°C° 0 mm 6 mps 750 mmHg 77%
    20:00 +13°C° 0 mm 5 mps 750 mmHg 78%
    21:00 +12°C° 0 mm 5 mps 750 mmHg 79%
    22:00 +10°C° 0 mm 5 mps 750 mmHg 79%
    23:00 +10°C° 0 mm 5 mps 750 mmHg 80%

    1 July, Monday

    Time Temperature Precipitation Wind Pressure Humidity
    00:00 +9°C° 0 mm 5 mps 750 mmHg 81%
    01:00 +9°C° 0 mm 5 mps 750 mmHg 81%
    02:00 +10°C° 0 mm 5 mps 750 mmHg 81%
    03:00 +10°C° 0 mm 5 mps 750 mmHg 81%
    04:00 +10°C° 0 mm 6 mps 751 mmHg 81%
    05:00 +10°C° 0 mm 6 mps 751 mmHg 82%
    06:00 +11°C° 0 mm 7 mps 751 mmHg 82%
    07:00 +12°C° 0 mm 7 mps 751 mmHg 77%
    08:00 +13°C° 0 mm 8 mps 752 mmHg 73%
    09:00 +15°C° 0 mm 8 mps 752 mmHg 68%
    10:00 +15°C° 0 mm 8 mps 753 mmHg 67%
    11:00 +16°C° 0 mm 8 mps 753 mmHg 65%
    12:00 +16°C° 0 mm 8 mps 753 mmHg 64%
    13:00 +16°C° 0 mm 7 mps 754 mmHg 64%
    14:00 +16°C° 0 mm 7 mps 754 mmHg 65%
    15:00 +17°C° 0 mm 6 mps 754 mmHg 66%
    16:00 +16°C° 0.1 mm 6 mps 755 mmHg 69%
    17:00 +16°C° 0.1 mm 5 mps 756 mmHg 73%
    18:00 +15°C° 0.1 mm 5 mps 756 mmHg 76%
    19:00 +14°C° 0.1 mm 4 mps 757 mmHg 81%
    20:00 +12°C° 0.1 mm 4 mps 757 mmHg 85%
    21:00 +11°C° 0.1 mm 3 mps 758 mmHg 90%
    22:00 +10°C° 0 mm 2 mps 759 mmHg 90%
    23:00 +9°C° 0 mm 2 mps 759 mmHg 90%
    Show more